Preview of NWS' New Version of Forecast
This preview is not operational and should not be used for support decisions.

Regional Weather Roundup (RWR)

Issued by National Weather Service (NWS)

                            
000
ASUS43 KBIS 221610
RWRND 

NORTH DAKOTA REGIONAL WEATHER ROUNDUP
NATIONAL WEATHER SERVICE BISMARCK ND
1100 AM CDT MON JUL 22 2019

NOTE: "FAIR" INDICATES FEW OR NO CLOUDS BELOW 12,000 FEET WITH NO
SIGNIFICANT WEATHER AND/OR OBSTRUCTIONS TO VISIBILITY.


NDZ001>003-009>011-017-221700-
NORTHWEST NORTH DAKOTA
  
CITY           SKY/WX    TMP DP  RH WIND       PRES   REMARKS
WILLISTON      SUNNY     75  56  51 VRB7      30.31S                  
MINOT          SUNNY     75  56  51 CALM      30.31S                  
MINOT AFB      SUNNY     74  60  62 CALM      30.29F                  
$$
 
NDZ018>021-031>035-040>046-221700-
SOUTHWEST NORTH DAKOTA
  
CITY           SKY/WX    TMP DP  RH WIND       PRES   REMARKS
BISMARCK       SUNNY     69  58  67 CALM      30.34F                  
DICKINSON      SUNNY     72  57  59 VRB3      30.32F                  
GARRISON         N/A     70  58  65 SE6       30.32S                  
HETTINGER ARPT SUNNY     72  56  57 VRB6      30.35S                  
$$
 
NDZ004>008-012>016-024-026-027-054-221700-
NORTHEAST NORTH DAKOTA
  
CITY           SKY/WX    TMP DP  RH WIND       PRES   REMARKS
GRAND FORKS    MOSUNNY   74  52  46 NW5       30.28F                  
GRND FRKS AFB  SUNNY     75  54  48 NW5       30.29F                  
DEVILS LAKE    SUNNY     71  54  54 NW6       30.32F                  
$$
 
NDZ022-023-025-028>030-036>039-047>053-221700-
SOUTHEAST NORTH DAKOTA
  
CITY           SKY/WX    TMP DP  RH WIND       PRES   REMARKS
FARGO          SUNNY     72  54  53 NW7       30.31R                  
JAMESTOWN      SUNNY     71  56  58 N5        30.33R                  
$$